Theta_e
304 305 305 306 306 306 306 307 307 307 307 308 307 307 307 309 310 308 307 310 312 310 309 308 308 306 306 307 308 307 312 311 311 311 313 315 314 315 315 315 316 320 320 318 318 324 321 321 323 324 324 326 328 328 330 329 330 331 331 328 327 325 327 332 332 329 324 321 323 324 324 326 326 326 326 326 326 326 326 326 328 328 327 327 327
303 304 305 305 305 305 306 306 309 307 307 306 307 307 307 308 309 308 308 309 311 311 311 308 305 307 306 307 305 307 309 307 309 311 312 314 313 312 312 312 313 317 321 318 318 317 318 318 319 322 325 326 328 328 329 330 330 330 330 327 328 326 324 329 329 327 321 319 318 318 321 324 325 324 324 325 326 326 326 325 326 327 327 328 328
302 303 304 306 306 305 305 306 307 307 307 307 307 306 306 307 308 308 308 309 309 312 311 309 305 306 305 304 309 306 305 307 308 312 312 310 309 311 311 310 312 314 316 320 317 316 315 316 316 318 320 323 323 324 325 325 326 328 329 327 325 326 326 328 326 327 322 322 320 318 315 315 321 321 323 323 324 325 325 325 325 325 327 328 328
301 303 305 305 305 305 305 305 307 307 307 306 305 305 307 309 307 307 308 309 310 313 313 307 308 306 307 308 306 305 306 312 308 308 309 309 309 309 311 309 311 313 314 316 314 313 314 314 315 316 317 319 320 320 320 321 323 326 328 328 329 325 325 325 328 326 325 321 315 317 315 314 313 317 319 323 324 324 324 324 325 325 326 327 329
302 302 304 305 304 305 306 306 307 306 307 306 306 306 307 307 307 308 308 309 309 315 311 310 311 309 309 308 308 307 308 306 307 307 309 313 310 308 309 310 311 311 312 315 317 312 313 313 315 315 316 316 316 316 316 317 319 322 325 327 326 325 324 326 326 328 326 327 321 316 313 312 313 315 316 318 320 321 322 323 324 325 325 326 327
303 303 305 306 306 306 305 306 306 306 307 307 306 306 307 307 307 308 308 308 309 311 309 310 311 309 308 306 303 302 304 303 303 306 306 307 307 307 308 309 310 311 312 313 316 315 313 313 314 314 315 316 315 315 315 316 316 317 319 324 326 328 326 324 324 327 327 328 327 325 320 315 315 318 317 314 320 322 322 322 322 324 325 325 326
302 303 304 305 306 305 305 306 306 306 307 307 306 306 306 306 307 308 309 309 310 311 309 311 307 309 309 308 305 304 303 302 301 302 307 305 305 307 307 309 310 312 312 312 313 314 312 312 313 314 314 314 317 314 314 314 315 316 317 318 320 323 325 321 321 323 326 326 326 326 324 323 324 319 315 315 314 318 322 323 325 323 323 324 324
303 303 304 306 306 306 306 307 307 307 307 307 306 306 305 306 307 308 309 311 310 310 309 309 308 308 308 306 306 303 303 305 303 302 304 307 306 307 307 307 309 310 311 312 313 314 312 311 311 312 313 314 314 313 312 313 314 314 316 315 316 318 320 320 320 321 320 320 324 324 323 324 325 325 323 319 316 314 317 323 324 323 324 325 325
303 303 303 305 306 306 307 307 308 306 307 307 307 307 306 306 308 308 309 311 310 310 310 308 310 308 308 307 306 305 304 305 307 310 307 307 306 305 307 307 308 309 311 312 312 313 314 310 310 310 311 312 314 311 311 311 311 312 312 313 313 314 316 318 318 317 318 318 320 320 324 324 324 324 324 322 318 315 316 318 320 323 324 324 324
302 304 304 305 307 308 308 307 306 306 307 308 306 306 306 306 307 308 308 310 310 309 310 307 308 309 306 306 306 305 306 303 305 305 304 304 306 305 305 307 308 309 309 309 310 310 310 311 309 310 310 312 312 309 309 309 310 310 310 311 312 312 313 314 314 314 315 316 317 318 317 317 319 321 322 321 321 320 316 317 319 318 317 321 325
300 303 304 306 306 306 306 306 306 305 306 307 307 307 306 306 307 308 309 309 310 309 308 307 307 307 307 306 306 305 304 304 304 303 303 303 305 304 305 306 307 308 309 308 309 310 310 312 309 309 311 313 310 308 308 309 309 309 309 310 309 310 310 310 311 312 312 312 313 314 314 315 315 315 316 317 317 316 316 317 318 319 319 319 323
299 302 302 303 305 305 305 305 305 305 305 306 306 307 307 307 307 308 308 308 308 309 308 307 307 307 307 307 306 306 305 305 305 304 305 305 304 305 304 305 307 307 306 307 307 308 309 308 310 308 309 307 308 308 308 308 308 308 308 309 308 308 309 310 309 308 309 310 310 312 312 315 314 314 315 317 316 317 316 315 316 319 320 321 323
298 300 302 303 304 305 305 305 305 304 306 306 306 307 308 307 307 307 308 308 308 308 308 306 306 307 307 307 307 307 306 306 305 305 305 305 304 304 304 306 305 308 306 307 306 306 307 305 306 307 308 308 307 307 307 307 307 307 307 307 307 306 307 307 307 307 307 307 308 310 311 311 311 313 315 314 315 317 318 315 316 320 316 317 320
298 299 301 303 303 304 305 305 306 306 306 306 307 307 308 308 307 307 308 308 308 307 307 306 306 307 307 307 307 307 305 305 305 305 305 305 305 305 306 307 307 309 307 307 308 307 307 308 307 307 307 307 307 306 306 307 307 306 305 305 305 306 306 306 306 306 306 307 308 308 308 309 310 311 312 312 311 312 311 311 312 315 317 316 319
296 299 301 303 304 305 305 305 305 306 306 306 307 307 308 308 308 307 307 308 308 307 307 306 306 307 307 308 307 307 306 305 304 305 305 305 304 305 306 306 308 307 308 307 308 307 306 305 306 306 305 305 305 306 306 305 305 305 306 305 307 305 304 306 305 305 305 305 305 306 307 307 308 309 310 309 309 310 310 310 310 308 312 315 314
295 298 301 301 302 303 305 305 305 305 305 305 306 307 308 309 309 308 308 308 308 308 307 307 306 307 306 307 307 308 308 306 305 306 305 306 305 306 306 306 307 307 306 307 307 306 305 307 307 305 304 305 305 304 304 304 304 304 303 303 304 308 304 303 304 304 304 304 305 305 304 304 306 307 307 308 309 309 310 310 310 310 307 306 311
294 295 297 300 301 302 305 305 305 305 305 306 305 306 307 307 307 308 308 308 308 309 308 307 306 306 306 307 307 307 306 305 304 304 304 305 306 305 306 306 305 306 306 307 307 304 305 305 305 304 304 304 304 304 303 303 303 303 302 302 303 303 306 303 304 304 304 304 304 304 304 304 304 306 306 306 306 308 309 309 309 309 308 306 306
294 295 295 296 301 303 303 305 306 307 307 307 307 306 307 307 307 307 308 308 308 308 308 307 306 306 306 306 306 307 308 306 305 304 304 304 304 304 304 304 305 306 307 307 306 305 306 310 304 304 303 303 303 303 302 302 302 302 302 302 302 303 302 303 304 304 303 305 304 303 303 303 304 304 304 305 306 306 307 307 307 308 310 306 306
295 295 296 297 298 299 302 304 305 307 309 309 309 309 309 308 308 308 309 310 310 309 308 308 308 308 308 307 307 306 307 307 306 305 305 304 304 304 304 305 304 305 307 307 304 305 306 303 304 303 303 302 301 302 302 301 301 301 303 301 301 301 301 302 302 303 304 304 302 301 302 302 303 303 304 304 305 305 305 306 306 307 307 308 307
294 295 296 297 298 299 300 301 304 305 306 308 310 310 310 310 310 309 309 310 309 309 308 308 308 309 308 307 307 307 307 307 306 305 304 304 304 305 304 303 304 306 306 306 305 305 305 303 303 303 302 301 301 300 300 300 300 300 301 300 300 301 301 301 301 302 302 302 301 301 301 301 302 302 302 303 304 304 305 305 305 305 306 307 308
292 294 296 296 297 299 299 300 301 303 305 306 308 310 310 310 310 310 310 310 311 311 308 308 308 308 308 307 307 306 306 306 305 305 305 304 304 305 304 305 305 305 305 304 305 305 304 304 302 303 301 301 300 299 300 300 300 299 299 300 300 300 300 300 302 301 301 301 301 300 300 301 302 301 302 302 303 303 304 304 305 305 304 305 305
292 293 294 296 297 298 300 300 301 301 302 303 304 306 308 309 310 310 310 310 310 310 309 309 309 309 309 309 308 307 306 305 305 304 305 304 304 304 304 304 305 304 305 305 304 304 303 302 302 300 299 299 299 299 299 300 300 299 299 300 300 299 299 299 299 299 300 300 300 299 300 301 301 301 301 301 301 302 302 302 303 303 303 304 306
292 293 294 294 295 296 297 298 298 298 299 300 302 304 305 306 307 309 310 310 311 311 311 310 310 308 308 308 307 307 307 305 304 304 304 304 304 304 305 304 304 303 304 304 303 303 301 301 300 299 299 299 299 298 299 299 298 298 298 298 299 298 298 298 298 298 298 299 299 300 300 300 301 301 301 301 302 301 302 301 302 303 303 303 304
292 293 294 294 295 296 296 296 297 297 297 298 299 301 303 305 306 307 308 310 310 310 311 310 309 309 310 310 308 308 306 306 305 305 304 304 304 304 305 304 304 303 303 302 302 301 300 300 300 299 298 298 298 299 298 298 299 298 298 298 297 297 297 298 298 298 298 298 299 299 300 300 301 300 300 300 301 301 301 301 302 302 303 302 303
292 293 293 294 295 295 295 296 296 297 297 298 298 299 300 302 304 306 308 309 309 309 311 311 310 310 310 310 308 307 307 306 305 305 304 304 304 304 304 303 302 302 302 301 301 301 300 299 299 298 298 297 298 298 298 297 297 298 298 297 297 297 297 297 297 298 299 299 299 299 300 300 301 300 301 300 301 301 300 301 300 301 301 302 302
291 292 293 293 293 294 295 295 296 296 297 298 298 299 299 300 302 304 305 308 308 309 310 311 310 310 309 309 308 306 306 306 306 305 304 304 304 304 304 303 303 302 301 301 300 300 301 299 298 297 297 297 297 297 296 297 296 297 297 297 297 297 298 297 297 298 298 299 299 298 298 299 299 298 298 299 300 300 300 300 300 300 301 301 301
291 291 291 291 293 293 293 294 295 296 296 297 298 298 299 299 300 302 303 305 307 307 309 310 310 310 309 308 308 307 307 307 306 305 305 304 304 304 303 303 303 302 301 300 300 300 300 298 297 297 297 297 296 296 296 295 295 295 295 296 296 296 296 296 297 297 297 297 297 297 298 298 297 298 297 297 298 298 299 299 299 299 299 299 299
289 289 290 291 291 292 293 294 295 296 296 296 297 297 297 298 299 300 301 302 304 306 308 309 309 309 309 308 308 307 307 306 306 305 304 304 304 303 303 303 302 301 301 300 299 299 298 298 297 297 297 297 296 295 294 294 295 295 296 296 295 296 296 295 295 296 296 296 296 297 297 297 297 298 298 298 298 298 298 297 298 298 298 297 297
288 288 289 289 290 290 291 293 294 294 295 295 296 297 298 297 297 298 299 300 302 303 306 308 309 308 308 308 307 306 306 305 305 305 304 304 303 303 303 302 302 302 301 300 299 298 297 296 296 296 296 296 296 295 295 295 296 295 294 295 294 294 294 294 294 294 295 295 296 296 297 297 299 300 298 298 298 298 298 296 297 297 297 296 296
288 288 288 288 290 290 291 292 292 292 293 294 295 296 297 297 297 297 298 299 300 301 303 306 308 309 309 308 307 307 306 305 305 304 304 304 304 303 302 302 301 300 299 298 297 297 297 296 295 295 296 296 295 295 299 295 296 297 295 294 294 294 294 294 294 294 294 294 295 295 297 298 298 298 297 296 295 295 296 298 297 297 296 296 295
287 288 289 289 289 289 290 290 291 292 292 293 294 294 296 296 297 297 297 298 299 301 302 304 307 309 309 307 306 306 305 305 304 304 304 304 303 303 302 301 300 299 297 298 297 296 295 295 295 295 294 294 294 296 295 293 293 293 294 294 293 293 293 293 293 292 292 293 294 294 295 296 297 297 297 295 294 294 294 294 294 295 296 296 295
287 288 288 289 290 289 290 291 291 291 291 292 293 294 295 296 296 296 297 298 299 300 301 303 306 307 307 307 305 305 304 304 304 304 303 303 302 301 300 299 298 297 297 296 295 295 294 295 294 293 293 294 294 296 293 292 292 292 293 295 293 292 292 292 292 292 292 292 292 293 294 295 295 296 296 296 295 294 293 293 293 292 292 293 293
286 288 289 289 289 289 290 290 291 292 292 293 293 294 295 295 295 296 297 297 298 299 300 302 305 306 307 306 305 304 304 303 304 304 303 303 302 301 300 299 298 297 296 295 295 294 294 293 293 293 293 294 293 294 292 292 292 291 291 292 292 291 291 291 291 291 291 291 291 292 292 293 294 295 296 296 296 296 295 294 293 293 293 292 291
287 287 288 288 288 289 290 290 291 292 292 293 294 295 295 295 296 296 295 296 297 298 299 301 303 305 306 305 305 304 303 303 304 304 303 301 301 300 299 298 297 296 296 295 294 294 293 292 292 292 292 292 291 293 292 292 291 291 290 291 291 290 290 290 291 291 291 291 291 291 290 291 292 293 293 293 294 294 294 294 294 294 295 295 293
287 287 288 288 288 288 289 290 291 292 293 293 293 293 294 293 294 294 294 296 297 298 299 301 302 304 304 304 304 304 303 303 303 302 301 300 299 297 297 297 296 295 295 294 293 292 292 293 292 291 291 290 291 292 291 291 290 290 290 290 290 290 290 290 290 290 290 290 290 291 290 290 291 291 292 293 293 293 293 293 293 293 293 294 294
288 288 288 289 290 290 290 291 293 293 293 293 293 294 293 294 294 294 294 295 297 298 299 300 301 302 303 304 304 303 302 302 302 301 300 299 298 297 297 297 296 295 294 294 293 293 293 291 291 290 290 288 289 291 290 290 290 290 290 291 290 289 289 289 289 290 290 290 290 290 290 290 290 290 291 290 291 292 292 292 292 292 292 293 293
288 289 290 290 290 290 291 292 291 292 293 293 294 294 293 293 294 294 295 295 296 297 298 299 301 302 303 304 304 303 302 302 302 301 300 299 298 297 296 296 294 293 293 293 292 293 293 291 290 289 288 287 287 290 290 290 290 289 290 289 289 289 288 288 288 289 289 290 290 290 290 290 290 290 291 289 290 291 291 291 291 291 291 292 292
289 289 289 289 290 290 291 291 291 292 292 293 294 293 293 293 293 294 294 295 296 297 298 299 300 302 303 303 303 303 302 302 302 301 300 298 297 296 296 296 295 293 293 292 292 291 290 291 290 288 288 287 287 288 290 290 290 289 290 289 289 288 287 287 288 288 289 289 289 291 292 291 290 290 290 289 289 290 289 289 289 289 289 290 291
290 290 290 291 291 291 292 292 291 291 293 293 293 292 292 292 293 294 294 294 295 296 298 299 301 302 303 303 304 304 303 302 301 299 298 297 297 296 296 296 295 294 293 292 292 290 289 289 289 289 292 288 286 288 290 289 290 289 291 290 288 287 286 287 287 287 288 288 288 290 291 291 291 290 289 288 288 289 288 288 288 287 287 287 289
291 290 290 291 292 292 291 290 290 291 292 292 292 292 292 293 293 294 294 294 295 296 298 300 301 302 302 303 304 304 303 303 300 298 298 298 297 296 295 295 294 294 292 291 291 290 289 289 289 289 290 290 287 287 290 289 290 290 290 291 289 287 286 286 287 287 287 288 288 289 290 289 288 288 288 288 288 288 288 288 288 287 286 286 289
290 291 293 291 291 290 291 291 292 292 292 292 292 292 292 293 293 293 293 294 296 297 298 299 300 301 302 303 304 304 303 302 300 299 298 297 297 296 295 294 292 291 290 289 290 288 288 288 288 288 288 288 288 287 288 289 289 290 290 290 288 287 287 287 286 287 287 287 287 288 289 289 288 288 288 288 288 288 289 289 288 287 287 288 289
290 292 291 290 290 290 290 290 291 291 292 292 292 291 292 293 293 293 294 295 296 297 298 299 300 301 303 304 303 304 303 302 301 299 298 298 297 296 296 295 293 291 290 289 289 288 287 287 287 287 287 286 287 291 288 289 289 289 289 289 289 288 289 288 287 287 287 287 287 288 288 289 288 288 288 288 288 288 288 289 288 288 288 288 288
289 289 290 290 290 290 290 290 291 291 292 292 292 292 292 294 294 295 296 296 297 297 298 299 300 302 303 303 303 302 300 300 298 298 297 296 296 296 294 293 291 290 289 288 287 287 287 287 287 286 286 286 286 287 289 289 289 289 289 288 288 288 288 289 287 286 286 287 288 288 289 289 288 288 288 288 288 288 288 288 287 287 287 287 288
290 290 290 290 290 290 290 291 291 291 292 292 292 292 293 294 295 297 297 297 297 298 298 299 300 302 303 302 301 300 299 298 298 297 296 294 293 292 292 291 290 289 288 286 285 286 286 286 287 287 287 286 286 285 286 288 288 288 288 288 288 287 288 288 288 287 288 288 288 288 288 288 287 287 287 287 287 287 287 287 287 287 287 287 288
290 290 291 290 290 290 290 291 292 292 293 293 294 294 295 295 297 298 297 297 297 298 298 299 301 302 301 300 300 299 299 299 298 297 294 292 290 291 289 288 288 288 287 287 285 286 286 287 286 286 286 286 286 285 284 286 286 287 288 287 287 287 287 287 287 288 289 288 288 288 287 287 287 287 287 287 287 287 287 287 287 287 288 288 287
290 290 290 291 290 290 290 291 292 293 294 295 296 297 296 297 299 298 298 298 298 298 298 300 301 301 299 299 298 298 298 297 296 295 294 292 292 291 289 287 288 288 287 287 285 285 285 285 285 285 285 285 286 285 284 284 286 287 287 287 287 287 288 288 288 288 288 288 287 287 287 287 287 287 287 287 287 287 287 287 287 288 288 288 287
290 291 291 291 291 291 291 292 292 293 295 296 298 299 300 300 299 299 298 298 298 298 299 300 299 299 299 299 298 298 297 296 295 293 292 292 292 290 289 288 287 287 286 285 286 286 286 285 285 285 285 285 284 284 284 284 285 285 285 286 287 287 288 288 288 288 288 287 287 287 287 287 287 287 287 287 287 287 287 288 288 288 288 288 288
290 291 291 291 291 291 291 292 292 294 296 298 300 300 301 300 300 299 298 298 298 299 300 299 298 298 298 297 297 292 294 293 291 291 290 289 290 290 288 287 286 286 286 285 285 285 285 286 284 284 284 284 284 284 284 285 285 286 286 287 287 287 287 287 286 287 287 287 287 287 286 287 287 286 287 287 287 288 287 287 288 288 288 288 289
290 291 291 291 292 292 292 293 294 296 298 299 300 300 301 300 299 299 299 298 299 298 299 298 297 296 295 295 295 294 293 291 290 290 289 289 289 288 287 287 286 286 287 286 285 284 285 284 284 285 284 284 284 285 286 287 287 287 287 287 286 286 287 286 287 287 287 286 286 286 285 285 285 285 285 285 286 286 286 287 287 288 288 288 288
291 292 293 293 293 294 294 295 296 298 299 299 299 300 299 298 298 299 300 299 298 298 298 296 296 295 294 294 293 292 292 291 290 289 288 287 286 288 289 289 286 287 287 287 287 285 284 283 284 285 285 284 284 286 287 287 287 287 287 287 287 287 287 286 286 286 286 285 284 284 284 284 284 284 284 284 285 285 285 285 286 287 287 287 287
292 293 294 295 295 296 296 297 298 298 298 299 299 299 299 299 298 300 300 299 298 296 295 295 294 293 293 292 291 291 291 290 290 289 289 288 288 286 287 287 288 288 287 287 288 288 288 287 287 283 285 286 287 287 287 287 287 287 287 287 286 286 286 286 286 285 284 284 283 283 283 284 284 284 284 284 285 285 285 285 285 286 286 286 286
Wind_Speed
2 4 5 7 6 5 4 4 4 4 5 5 6 6 7 9 8 8 6 7 8 7 6 6 4 3 3 3 5 2 3 4 5 4 5 4 4 4 4 4 4 5 4 4 5 4 5 4 3 1 2 1 1 1 2 4 3 4 3 3 2 1 2 3 2 2 1 2 2 4 4 2 4 5 6 5 6 5 4 4 4 4 4 5 6
3 4 5 5 4 4 4 5 6 9 6 5 8 9 7 6 8 8 7 7 8 8 7 5 3 4 5 4 3 2 3 5 4 4 3 4 4 4 3 3 4 4 4 4 4 5 5 5 5 3 2 2 2 1 2 1 1 1 0 1 1 1 2 3 3 2 1 0 1 3 3 4 5 5 6 6 6 6 5 5 5 6 6 6 4
5 5 4 7 6 6 5 5 5 6 8 8 7 7 7 7 6 7 7 8 7 7 7 5 2 2 3 3 5 3 1 1 3 2 3 5 4 3 3 3 4 4 4 4 4 4 5 5 5 4 5 3 5 5 4 5 3 1 1 1 1 2 1 2 3 2 3 1 1 2 2 2 1 2 4 6 7 6 6 6 6 6 7 5 4
9 11 12 8 7 7 5 7 7 5 6 6 6 8 7 7 6 7 7 6 7 5 5 4 5 4 4 5 3 3 3 3 4 3 4 4 4 3 4 4 4 4 4 4 4 5 5 5 5 6 6 5 5 6 6 6 5 5 4 2 2 2 1 2 2 4 2 4 1 2 1 1 4 3 3 4 5 7 7 7 6 6 6 5 4
11 8 6 8 9 12 12 7 7 8 9 10 9 8 6 8 7 8 8 7 6 5 6 6 6 6 5 5 4 6 5 4 4 4 3 3 3 4 3 3 4 4 4 4 4 5 5 5 6 5 6 5 5 6 6 5 5 5 3 2 2 3 2 2 0 3 4 3 2 2 1 0 3 1 4 4 0 3 5 6 5 6 6 5 5
13 14 16 17 16 8 5 8 9 8 10 9 6 6 7 8 6 6 5 6 6 5 6 7 6 7 6 6 4 3 4 5 4 5 3 4 4 1 2 4 3 4 4 4 4 5 6 6 6 6 6 6 6 5 5 6 7 7 6 5 4 4 2 3 4 1 3 3 1 1 1 0 1 2 2 3 4 2 3 1 4 4 4 5 5
8 7 7 8 8 8 10 11 12 12 9 6 6 7 7 7 7 7 8 7 6 5 5 6 6 6 7 7 7 7 7 4 2 3 6 3 2 3 2 3 3 5 4 4 5 5 6 6 6 6 6 6 5 6 7 6 6 6 5 6 5 5 4 5 5 4 1 2 1 3 1 1 1 2 1 2 4 4 2 1 2 3 4 5 5
13 14 13 14 14 15 16 17 13 14 8 7 6 7 8 8 9 8 7 7 6 6 6 6 8 6 5 5 4 5 7 6 5 4 3 4 5 3 3 2 3 3 5 5 5 5 6 6 6 6 7 6 6 7 6 5 6 6 6 6 6 6 6 5 4 5 4 3 5 1 0 3 4 4 3 1 2 4 6 4 2 2 1 3 4
12 12 12 13 15 15 15 14 12 7 9 11 10 9 7 7 7 5 7 7 7 7 7 5 6 7 7 6 4 3 2 2 4 4 5 4 5 3 3 3 4 3 4 5 4 5 5 6 6 7 7 6 5 6 6 7 8 8 8 8 8 7 6 5 5 6 5 6 4 4 2 3 0 2 3 4 3 3 5 4 5 4 3 3 1
10 13 14 14 15 17 15 6 5 7 6 6 5 5 6 5 6 6 7 7 7 7 7 6 5 6 6 6 6 4 1 2 4 5 4 4 5 4 3 4 4 5 4 4 5 5 6 6 6 6 6 6 5 6 6 8 7 7 7 7 7 8 6 6 6 5 4 4 6 4 4 4 3 2 2 3 3 5 4 4 5 6 7 3 3
11 12 12 12 7 5 5 9 7 6 6 7 7 7 5 6 7 9 9 7 7 8 8 8 6 7 7 7 7 6 4 5 5 4 4 4 5 4 4 5 4 5 4 3 4 5 5 5 6 5 5 5 6 6 6 6 6 6 6 7 8 7 6 6 6 6 4 5 7 6 6 6 5 3 4 3 3 3 4 4 4 5 6 9 6
9 8 5 4 6 7 7 7 9 8 8 9 8 7 7 7 8 9 7 7 7 8 8 7 7 7 6 8 8 7 8 6 7 8 7 7 6 6 3 4 4 4 4 5 3 4 5 5 4 5 6 6 6 6 5 6 6 6 6 6 6 6 6 6 6 6 7 5 6 5 5 5 5 5 5 4 4 4 4 6 5 5 6 5 5
5 6 7 6 7 10 12 9 8 11 12 12 11 11 9 8 10 12 11 9 9 8 9 8 8 8 8 8 7 7 7 7 7 7 7 7 6 5 5 6 5 5 4 5 4 4 5 5 5 6 5 5 5 6 5 6 6 6 6 6 6 6 6 6 6 6 6 6 4 4 4 5 4 4 4 5 5 5 4 4 5 4 5 6 5
1 2 5 7 5 3 5 9 11 10 9 11 11 11 10 10 10 11 11 8 7 8 9 9 9 9 8 8 8 7 7 7 7 8 7 6 7 8 7 7 7 7 6 6 6 5 3 4 5 5 5 5 5 6 6 5 6 6 6 6 6 4 5 6 5 5 5 5 5 5 5 4 4 3 4 4 4 4 4 5 6 4 5 7 5
2 1 3 4 5 6 5 5 4 4 7 9 10 11 10 10 10 11 9 9 9 10 8 9 9 8 7 8 8 7 8 7 7 6 8 7 6 7 6 6 7 6 7 5 5 5 5 5 5 6 5 5 5 5 5 6 6 6 5 5 5 4 5 5 5 5 5 6 6 5 4 4 4 4 3 3 3 3 3 4 5 6 4 4 5
5 3 1 2 3 4 4 3 4 4 4 4 5 5 9 12 12 12 13 12 10 9 10 10 9 8 7 8 9 8 6 6 5 5 5 7 8 8 8 7 7 7 5 6 5 6 6 5 4 5 5 5 5 6 5 6 6 6 5 5 5 3 5 6 4 4 4 4 4 4 4 5 3 4 3 3 3 3 3 3 4 4 6 7 5
8 7 4 0 2 3 4 5 4 4 3 4 4 4 1 2 3 5 6 6 10 11 10 10 8 7 8 8 7 8 8 9 9 8 8 6 6 7 7 7 6 7 7 5 7 5 6 6 6 5 5 5 5 5 6 6 5 5 5 5 5 3 4 4 3 4 3 2 3 4 3 4 4 4 3 3 3 3 3 3 3 3 4 5 6
9 10 7 5 3 1 3 4 5 6 5 5 4 3 3 3 4 4 4 7 7 6 7 8 9 9 8 9 9 10 10 10 8 9 7 7 5 5 3 5 6 6 7 6 6 7 6 6 6 5 5 5 6 5 5 6 5 5 5 5 4 4 4 3 3 3 4 3 3 4 3 4 4 4 4 4 4 3 3 3 3 2 2 2 3
10 10 10 10 9 6 1 3 4 5 6 7 6 6 5 5 4 4 6 4 1 2 4 5 6 7 7 8 9 9 8 8 7 7 7 8 8 7 7 6 4 4 5 6 6 6 6 5 6 5 5 5 5 6 5 5 5 5 4 4 4 5 5 5 4 3 3 3 4 4 4 4 4 4 4 4 4 4 4 3 3 2 3 3 4
8 9 9 9 9 10 9 5 1 1 4 5 6 7 8 8 8 7 6 5 4 4 6 5 2 1 4 3 4 4 6 7 7 8 8 8 8 8 7 6 7 5 5 6 6 6 6 6 5 6 6 5 6 5 5 6 6 5 4 4 3 4 5 4 4 4 3 3 3 3 3 4 4 3 4 4 4 4 4 4 3 3 3 4 4
7 7 7 7 8 10 10 9 8 5 2 1 3 7 7 5 6 8 10 9 10 9 8 7 5 6 4 5 5 5 6 5 5 7 8 8 7 7 8 7 6 6 6 7 7 7 6 6 6 6 6 6 6 6 5 6 5 5 4 4 4 3 3 2 2 4 4 5 5 5 4 3 3 3 3 3 4 5 4 4 3 3 3 3 4
5 5 5 5 6 7 8 9 9 11 10 8 5 3 0 4 6 7 7 9 9 9 10 8 9 11 13 11 7 7 6 5 6 7 8 7 7 7 7 7 8 7 8 8 8 7 6 7 6 6 6 6 6 6 5 6 6 5 4 3 3 2 2 2 2 3 3 3 4 5 5 5 4 3 3 3 3 4 4 4 4 4 3 3 2
4 5 5 6 5 5 5 6 6 7 7 8 8 6 4 2 2 3 7 9 9 9 9 10 9 6 5 4 4 6 6 7 8 7 8 8 7 7 7 9 8 8 6 8 8 8 7 6 6 6 5 5 5 5 5 6 5 5 3 1 1 1 1 1 2 3 3 3 4 4 5 5 4 4 4 4 4 4 3 4 5 4 4 4 4
4 4 6 7 6 8 10 10 10 9 7 7 6 7 8 7 2 2 4 6 5 5 7 8 9 10 11 11 12 11 10 10 10 10 9 8 8 8 8 8 8 8 8 6 8 8 8 7 6 5 5 5 5 4 5 5 5 3 2 1 1 0 1 1 2 3 4 4 4 5 5 5 5 5 4 4 4 4 4 4 5 4 5 5 5
8 8 6 7 11 11 9 9 10 10 10 9 8 7 6 6 8 6 4 4 4 3 6 9 10 12 12 13 11 9 12 12 12 10 11 10 10 9 8 9 9 8 7 8 6 7 7 7 7 6 6 5 5 5 5 4 3 3 3 2 1 1 2 2 3 3 3 4 4 4 5 4 5 6 5 4 3 5 5 5 6 5 5 5 4
5 8 10 10 6 6 9 9 9 9 9 8 8 9 9 8 8 6 7 6 4 4 6 8 9 10 11 13 12 9 11 13 13 12 12 11 11 10 10 9 10 11 9 8 9 6 7 7 7 6 6 6 5 5 4 3 2 1 1 1 2 2 3 3 4 4 5 5 5 5 5 5 5 5 6 6 6 8 7 7 8 8 8 6 6
5 5 5 3 5 8 6 6 6 6 6 5 6 8 8 7 8 8 6 7 6 3 5 6 6 8 9 11 12 13 13 12 12 12 10 10 10 11 11 11 9 11 11 9 8 8 5 7 7 7 7 6 5 3 2 1 1 1 2 2 3 4 4 4 4 5 5 6 6 6 6 6 6 5 6 6 6 7 6 7 7 8 9 9 9
4 4 5 6 5 5 5 5 6 6 6 5 4 3 4 4 6 7 8 7 7 6 5 6 6 7 8 10 11 10 9 8 5 3 2 1 2 7 9 10 10 11 11 11 11 9 7 7 7 7 6 5 5 4 2 1 2 3 3 4 4 4 5 5 5 6 6 6 7 7 7 7 7 7 6 6 6 6 5 7 6 6 7 8 8
4 5 5 4 5 5 5 6 6 7 8 8 8 7 6 5 4 4 5 7 8 7 6 5 6 8 9 9 8 7 7 7 8 9 11 11 10 7 8 10 10 10 8 10 10 10 10 8 6 7 7 6 6 4 3 2 0 2 2 4 4 4 5 5 5 6 6 6 7 7 7 7 8 10 12 11 10 8 6 6 6 5 6 7 7
4 5 5 5 5 6 6 6 6 5 6 7 7 7 7 8 8 6 6 6 7 8 9 7 6 8 7 7 8 8 9 9 9 11 12 11 10 10 10 10 9 9 9 9 9 9 9 9 8 7 7 6 5 4 3 3 1 0 2 3 3 4 5 5 6 6 6 7 7 7 7 12 13 14 14 14 14 13 13 10 8 6 6 7 7
4 5 6 5 4 4 5 6 6 6 6 6 5 5 6 6 7 8 8 6 5 8 8 7 9 7 6 5 6 8 8 9 8 8 9 12 12 10 9 9 8 8 9 8 8 9 7 7 8 8 7 6 5 4 4 1 2 2 1 3 3 5 5 5 6 6 7 6 6 7 7 8 10 11 11 13 14 15 15 15 15 15 12 9 7
5 5 5 6 7 6 6 6 5 5 5 5 6 5 5 7 6 6 7 7 7 6 7 8 7 7 6 6 7 7 7 7 8 10 10 9 9 9 7 7 8 9 8 8 8 8 8 7 7 7 7 6 5 5 5 3 4 4 3 3 4 4 5 5 6 7 6 6 7 6 6 6 6 8 9 9 11 14 15 15 16 16 16 17 15
4 5 6 6 6 6 6 7 6 7 6 6 5 5 6 6 7 6 6 7 8 7 8 9 8 7 7 6 6 8 8 9 11 12 10 10 10 12 13 11 10 10 10 11 10 10 9 8 9 9 7 6 5 6 6 6 6 5 5 4 4 4 5 6 6 7 7 6 6 7 7 6 6 11 12 10 9 10 12 15 16 17 18 17 16
5 5 5 7 6 6 6 6 7 8 6 7 5 6 7 6 6 6 5 6 7 9 8 9 9 8 6 5 6 7 9 9 8 6 7 7 7 7 9 9 9 8 9 10 11 10 9 9 8 8 8 6 5 7 9 7 6 6 6 4 4 5 5 6 7 7 6 7 7 7 7 8 7 8 8 9 9 9 9 10 10 9 9 12 14
5 5 5 5 6 7 7 8 7 6 5 5 6 5 6 5 5 6 5 6 6 7 8 8 8 8 6 5 6 7 6 6 6 7 6 7 8 9 7 6 7 8 9 10 10 9 8 8 8 7 8 6 5 8 9 7 6 6 6 3 4 4 5 6 7 7 7 7 8 7 8 9 8 8 7 10 10 10 9 9 10 10 9 10 11
5 5 6 6 6 7 8 9 8 7 7 5 7 6 6 7 4 6 6 6 6 7 8 8 8 8 7 6 7 6 7 7 8 10 11 12 12 12 12 11 10 9 8 8 6 8 9 8 7 8 7 7 6 8 8 7 6 6 5 3 4 5 5 6 7 7 7 6 6 7 8 8 9 10 12 14 13 12 12 12 12 12 12 12 11
5 5 8 7 7 7 8 7 7 8 9 9 9 7 7 8 8 7 6 6 6 7 7 7 8 8 8 6 6 7 8 9 9 10 11 12 13 11 9 7 9 8 9 9 9 7 7 8 7 6 7 6 6 7 7 6 5 6 3 4 4 5 5 6 7 7 7 6 6 7 8 10 10 10 11 13 13 14 13 12 13 13 11 11 10
6 6 7 8 8 8 7 7 9 9 9 9 8 8 8 9 9 9 9 8 6 8 7 7 8 8 8 6 6 7 8 9 10 11 10 8 8 10 11 9 11 10 9 8 7 6 4 5 6 6 7 7 6 6 7 6 6 6 5 5 5 5 6 7 7 6 6 6 8 15 14 12 10 10 11 13 15 15 15 14 15 16 17 15 12
7 8 9 9 9 8 8 7 7 9 11 9 9 8 9 10 9 9 9 9 8 8 8 8 9 8 7 7 7 8 9 9 10 11 11 12 11 11 10 9 9 9 9 8 7 8 6 4 6 7 7 6 5 5 6 7 7 7 6 4 5 5 6 7 7 6 6 6 7 9 15 14 13 13 15 16 17 14 14 14 15 16 18 18 15
8 8 9 10 8 7 7 8 9 11 10 9 9 8 9 10 10 9 10 10 9 8 8 8 9 8 7 7 8 9 9 10 10 9 8 10 10 9 9 8 7 7 7 6 5 6 6 8 7 4 5 5 5 5 5 7 7 8 9 6 5 5 7 7 6 6 6 5 6 7 10 13 15 15 15 16 16 16 14 15 14 15 16 19 13
8 9 8 7 8 8 10 10 10 10 9 9 8 9 11 10 10 10 12 10 8 8 8 9 9 7 7 8 8 10 11 10 12 12 9 8 9 11 9 9 8 6 7 6 6 7 8 6 5 5 4 5 4 5 6 8 9 9 10 8 5 6 7 6 6 6 6 9 9 8 8 11 14 15 15 16 16 16 16 15 16 16 16 17 17
8 9 8 7 8 8 9 10 10 11 10 9 9 10 11 11 10 12 13 9 8 8 8 9 8 8 8 8 8 9 11 11 11 12 13 12 10 11 10 10 8 8 8 8 7 6 6 5 4 4 4 6 5 6 6 8 10 11 11 10 6 6 6 7 7 7 10 9 9 9 8 11 14 16 16 16 18 18 19 16 17 19 22 21 17
8 8 7 8 9 10 10 11 9 8 8 9 9 12 12 11 13 14 10 9 9 8 9 8 8 8 8 7 7 9 8 6 5 8 13 12 10 10 9 9 9 8 8 7 6 5 4 5 3 4 4 6 6 6 9 9 10 11 12 9 9 8 9 7 7 10 10 10 8 9 13 17 16 17 18 19 20 22 20 17 21 22 22 23 20
9 8 9 6 9 10 11 10 9 8 8 9 10 12 12 13 16 11 10 9 8 9 8 8 8 7 7 7 8 9 10 10 9 4 2 7 8 7 7 7 8 8 7 6 5 4 3 3 5 5 5 6 6 5 6 9 9 12 10 10 10 11 10 8 8 11 10 8 11 13 14 18 20 21 22 22 21 21 17 22 23 24 24 22 15
12 13 9 7 10 13 12 11 9 9 10 10 10 12 15 16 14 10 11 10 9 8 7 7 7 7 7 8 7 7 8 11 11 10 9 7 7 6 6 4 7 6 6 6 5 4 5 5 4 5 6 6 6 4 6 8 10 10 10 10 10 11 12 13 12 9 9 11 15 20 21 21 21 21 23 23 21 20 22 22 23 23 23 14 13
11 11 11 10 10 10 11 13 13 10 11 11 11 11 14 14 11 10 10 9 8 8 7 8 7 8 10 11 12 11 9 8 6 8 9 9 10 7 7 4 5 6 6 6 6 5 5 5 5 5 5 6 6 6 7 7 6 6 6 9 11 11 13 14 14 13 17 19 20 19 20 20 18 17 15 13 12 13 17 20 21 21 13 12 12
14 14 10 10 9 11 13 13 15 12 10 10 10 10 12 11 10 10 9 8 8 8 8 7 9 10 11 13 15 12 10 9 7 4 4 6 7 7 7 6 5 6 5 5 5 5 4 4 5 5 5 5 6 6 7 7 6 6 6 6 7 9 11 12 10 10 12 12 13 14 13 16 17 20 20 19 19 17 15 13 10 10 10 10 11
11 12 11 11 11 13 14 14 14 13 10 11 11 11 10 10 9 9 9 8 8 8 9 10 12 12 11 13 13 15 14 9 7 7 6 5 5 7 8 7 7 6 6 6 5 4 5 5 4 4 4 5 6 6 6 6 6 6 7 7 8 9 9 9 10 10 10 12 12 12 13 9 9 10 10 8 8 9 10 10 10 10 10 10 12
12 13 11 11 11 13 13 14 14 12 11 11 11 9 9 10 9 8 8 10 9 10 10 13 13 12 12 11 10 8 8 8 7 5 4 5 9 7 6 5 4 6 7 7 6 6 5 5 4 3 3 5 5 6 6 7 9 9 9 9 8 8 9 9 10 14 13 9 8 9 9 9 8 9 9 9 9 9 9 9 11 10 9 9 9
12 11 11 12 13 14 14 15 13 11 11 10 9 8 6 5 6 8 10 11 10 10 12 13 12 12 12 11 10 9 8 9 9 8 7 3 5 2 6 8 4 6 5 5 7 3 3 4 3 3 3 1 3 6 10 13 13 13 13 13 13 13 13 12 14 17 12 8 9 11 11 10 10 10 11 11 10 9 9 9 8 10 10 9 9
11 11 12 13 13 14 14 14 12 10 9 8 6 2 4 5 4 8 10 10 12 12 11 11 11 10 11 11 9 9 9 8 8 8 7 8 6 2 3 6 6 6 6 5 1 4 4 4 1 1 1 3 4 8 10 11 13 13 13 13 13 14 14 15 16 12 9 9 10 10 10 9 10 10 10 10 10 10 9 10 10 9 8 9 10
Wind_Direction
182 176 169 185 192 177 158 149 154 149 165 165 154 161 167 162 150 145 145 140 134 133 131 133 115 81 47 68 111 88 98 78 59 39 54 53 52 45 45 41 48 53 55 67 71 68 67 68 62 56 126 111 352 348 263 191 204 231 174 140 149 122 111 103 98 118 134 313 327 289 295 221 241 243 220 204 225 240 248 233 232 211 211 212 219
153 150 175 180 191 177 161 157 158 162 192 175 172 175 172 165 160 151 148 149 150 151 153 148 152 165 154 172 143 124 98 95 82 56 71 61 52 43 34 38 54 54 57 58 59 67 65 58 51 33 32 65 58 4 2 45 159 234 116 344 56 73 69 79 90 97 27 62 359 325 322 292 244 231 234 224 213 218 218 227 220 221 222 220 213
186 192 178 192 189 188 182 179 188 192 177 181 182 166 167 174 172 156 158 153 158 153 147 153 133 136 131 174 142 107 61 141 125 84 77 76 51 39 33 26 55 53 55 64 70 54 66 69 51 44 34 44 78 60 52 48 32 25 122 107 48 49 52 116 144 191 147 139 107 57 325 356 329 273 249 244 227 210 190 209 213 215 226 221 205
196 192 194 187 189 192 190 190 185 181 177 187 189 178 173 178 173 166 161 154 153 163 143 103 106 99 79 110 75 106 133 114 78 57 63 58 38 29 39 27 34 52 41 58 67 53 55 62 61 54 45 29 49 64 49 38 13 50 40 40 86 82 52 54 171 197 161 149 237 178 210 137 319 288 282 262 218 220 193 212 200 214 216 215 194
199 195 182 181 190 202 197 181 176 190 190 192 186 181 171 178 184 175 162 158 156 155 128 123 104 80 87 73 82 77 63 73 86 46 49 96 82 54 16 16 33 41 34 43 63 68 56 53 60 56 57 48 55 61 55 45 48 33 23 53 57 89 77 79 159 187 212 233 163 124 77 43 216 278 348 286 63 218 230 224 210 215 208 206 209
194 192 190 191 196 185 171 185 192 198 198 197 179 171 171 178 174 178 160 147 154 153 145 138 139 136 133 128 133 114 131 138 149 158 139 130 147 187 24 34 44 53 40 50 64 72 63 58 57 56 52 48 51 61 50 45 39 44 25 31 38 37 71 76 52 10 223 190 52 70 128 142 13 307 25 288 332 230 323 266 236 233 221 209 215
219 209 193 187 187 177 193 195 199 200 200 165 171 180 183 173 175 177 168 159 153 153 159 141 136 153 169 172 172 166 165 221 177 169 146 170 132 102 60 28 54 82 61 63 68 68 73 63 64 62 59 54 55 59 51 43 34 35 37 52 36 29 37 68 48 22 17 50 309 273 265 170 125 47 298 344 328 323 20 19 301 225 218 220 226
202 201 194 192 185 187 191 202 195 201 169 166 172 185 183 175 174 179 172 161 156 155 168 164 156 169 172 179 178 169 170 185 168 161 135 130 116 109 87 64 54 69 87 73 73 74 75 69 71 71 66 55 57 57 59 47 47 34 38 41 45 39 37 50 49 30 31 37 337 61 76 248 229 240 197 219 295 306 307 312 167 348 352 257 249
208 202 196 185 188 197 202 200 197 157 168 180 182 186 176 178 175 168 169 161 159 161 168 184 168 170 172 170 187 223 204 133 124 122 127 123 113 93 88 68 69 56 77 88 74 79 79 85 78 75 71 63 65 65 57 53 52 45 36 35 34 37 33 29 45 38 28 33 12 20 350 47 300 247 239 205 218 252 274 255 307 312 287 254 314
214 210 200 194 195 199 198 178 143 176 154 157 169 172 181 167 165 171 180 175 163 165 174 185 178 155 159 176 180 197 133 85 109 119 124 128 128 123 102 91 92 79 69 81 89 85 90 87 84 82 83 77 69 70 64 58 53 54 49 47 42 45 34 43 50 38 31 25 30 29 36 3 18 33 63 352 253 236 277 318 325 316 317 293 303
208 207 203 204 199 171 144 171 169 138 156 159 171 180 165 167 177 185 191 174 166 171 173 187 181 165 173 176 179 178 176 151 125 113 115 116 137 148 135 120 97 105 98 71 92 101 94 93 94 90 86 86 86 77 71 72 64 65 59 56 51 50 37 44 46 44 45 39 35 34 36 29 22 20 1 348 332 305 301 278 294 294 294 299 306
205 197 185 157 155 162 157 161 164 163 152 167 175 173 179 181 181 187 192 183 177 173 176 185 180 180 177 174 177 181 171 173 167 167 173 163 160 158 162 119 108 105 105 109 99 98 103 95 94 92 88 88 81 80 79 77 76 73 66 63 57 50 47 48 46 38 34 40 37 32 38 29 27 21 1 342 344 328 318 307 303 306 291 265 303
208 179 151 171 174 173 180 175 154 172 180 174 174 180 184 184 184 188 195 190 185 175 179 181 183 188 180 179 182 175 185 181 176 174 177 167 160 147 150 158 143 127 145 131 156 150 131 127 125 114 110 106 110 95 89 84 79 73 69 66 60 52 49 54 49 39 37 38 23 24 37 40 39 16 5 4 360 337 329 317 313 318 298 306 309
209 175 166 162 167 206 206 183 182 178 176 175 175 179 187 191 188 194 198 190 184 178 181 181 194 192 184 176 177 175 189 186 185 179 184 173 164 167 170 172 168 171 166 172 171 165 144 128 120 114 113 118 110 106 101 100 92 86 81 74 71 65 61 61 54 45 42 34 30 32 25 22 18 19 22 25 11 5 2 341 328 304 284 284 286
3 147 163 163 157 159 177 194 205 199 185 178 178 187 184 192 189 194 194 196 188 188 181 188 193 194 189 179 174 181 186 186 192 190 175 170 177 169 177 172 168 176 172 178 159 146 135 125 122 116 118 110 105 97 91 80 74 72 72 70 68 75 70 62 53 48 38 31 34 30 13 14 360 2 7 19 17 21 354 344 341 331 302 283 297
20 38 68 105 144 135 135 159 180 172 185 201 205 194 194 199 196 195 196 190 189 188 192 190 193 189 185 182 185 183 189 184 181 190 191 182 175 177 178 183 181 159 165 154 169 149 145 134 121 124 131 123 110 112 105 93 91 90 74 67 54 31 55 54 56 57 44 37 35 17 17 357 343 351 356 351 349 337 346 357 355 353 332 306 318
31 20 353 343 126 132 148 154 158 154 167 188 181 181 220 333 291 243 214 196 197 197 192 192 188 182 196 192 183 183 186 185 186 190 187 190 180 183 176 189 167 158 161 165 158 158 148 141 134 133 122 113 105 104 104 101 98 88 87 82 70 38 62 44 26 36 26 39 40 22 4 338 332 333 341 340 332 333 339 344 5 352 347 314 307
26 32 29 16 350 200 156 156 161 162 158 157 170 163 164 170 172 208 236 232 222 207 198 195 191 195 196 197 195 192 192 194 186 183 179 175 184 179 158 149 186 175 160 162 153 152 152 141 134 128 122 110 113 105 93 92 83 63 60 64 62 49 37 33 36 21 354 353 26 357 354 333 317 326 327 322 321 328 324 333 339 334 318 289 296
24 26 21 19 25 17 348 183 171 160 162 163 166 167 163 160 166 180 211 212 240 238 249 233 207 198 202 205 201 201 203 197 191 177 171 181 182 179 178 183 159 155 147 148 146 147 144 139 133 132 124 118 104 101 104 92 91 83 61 60 38 40 40 16 357 21 346 23 360 346 329 321 310 314 316 314 317 317 319 319 324 321 306 280 278
18 27 17 17 28 29 26 14 329 215 174 169 166 169 174 173 177 180 174 188 187 193 205 224 228 329 296 296 267 236 215 201 191 176 181 192 188 177 171 161 178 167 162 154 151 151 150 143 144 140 140 131 116 115 118 113 104 102 105 78 70 71 51 17 345 344 341 349 352 338 317 305 308 308 308 308 307 302 298 305 307 310 303 292 289
17 15 16 10 16 35 29 27 35 35 38 142 167 177 182 179 180 179 178 181 196 199 186 191 159 184 222 241 232 236 228 219 202 194 191 195 185 179 177 172 148 168 155 156 156 155 152 151 152 157 150 144 131 134 142 123 105 99 100 104 98 95 68 38 4 331 330 332 332 330 302 273 266 276 285 296 293 294 295 286 281 282 285 296 298
17 11 11 17 16 27 37 32 34 44 35 33 17 9 298 198 188 177 184 191 193 189 186 177 184 192 201 216 208 196 213 215 212 205 201 192 184 180 169 151 167 168 162 159 155 151 149 150 149 146 140 134 137 138 147 113 105 97 86 103 94 85 86 10 49 316 313 307 313 312 305 296 274 256 258 271 278 280 281 283 281 274 271 270 268
7 10 12 13 18 22 41 53 52 48 40 38 34 31 9 325 292 232 197 207 201 196 180 179 189 184 185 207 230 231 216 204 203 209 206 195 186 171 166 163 164 161 164 157 153 150 149 144 139 144 134 132 131 127 119 106 108 113 114 127 139 129 122 338 357 307 296 301 302 286 282 276 265 276 265 255 243 253 254 267 273 267 268 263 254
16 24 23 16 14 16 22 20 23 26 33 38 34 26 20 14 337 263 260 247 224 192 182 181 178 184 198 214 210 191 192 206 207 201 199 194 182 175 169 165 161 155 152 151 145 145 142 140 136 132 128 128 128 126 110 109 126 137 151 190 217 165 158 237 277 300 299 301 298 296 282 277 270 266 260 246 247 243 244 246 249 253 254 259 251
14 18 13 20 23 16 11 13 17 13 14 16 18 24 24 20 22 356 296 275 256 219 187 188 189 194 201 212 216 198 196 197 205 202 197 184 178 170 168 161 152 153 147 140 140 140 138 139 142 144 141 139 143 134 124 122 138 161 173 187 205 213 236 265 266 270 285 288 287 288 292 301 305 301 298 277 268 272 283 283 287 263 251 252 246
4 2 13 12 4 5 13 13 10 12 9 6 7 9 7 9 11 10 2 327 273 215 211 202 202 199 205 211 209 200 203 203 201 199 194 185 173 168 165 163 158 151 150 149 147 153 148 148 142 146 144 144 141 136 141 159 170 122 129 206 234 247 268 277 282 279 276 270 274 273 281 287 295 301 303 307 308 304 303 296 297 298 297 289 279
3 4 343 330 12 14 4 1 358 3 10 9 5 1 3 0 358 359 357 358 332 268 233 228 220 214 207 209 208 208 207 206 204 202 189 178 174 169 162 162 163 151 149 148 150 147 150 142 147 139 142 148 145 118 83 58 26 15 309 276 312 317 305 295 278 277 272 269 269 271 271 271 270 271 282 287 294 294 294 296 300 300 299 297 295
335 348 3 7 350 340 349 347 351 357 347 355 8 11 4 1 350 347 348 349 352 335 279 246 228 223 217 212 211 212 210 207 192 137 105 178 196 175 166 156 151 153 154 153 152 148 149 143 148 146 138 120 104 96 97 70 7 326 321 328 327 317 305 298 293 284 281 277 274 272 267 263 260 258 262 270 268 279 281 283 284 288 289 289 287
338 342 349 351 345 331 328 336 339 346 350 348 348 347 350 351 355 351 344 342 337 335 316 269 248 229 222 212 204 200 197 185 167 163 170 179 184 184 169 162 162 157 152 148 143 139 137 132 124 123 119 119 122 124 119 145 228 322 360 319 308 297 289 284 281 274 272 270 271 269 269 262 263 266 266 268 269 268 277 278 272 272 278 279 282
329 323 322 322 321 322 323 325 330 335 335 335 336 337 338 340 338 342 342 332 343 328 323 307 261 244 235 216 201 193 192 191 184 184 187 175 174 175 170 165 157 149 143 140 138 139 137 137 130 124 122 117 112 129 132 117 141 197 261 269 281 280 281 284 287 289 281 273 269 269 268 270 272 273 272 270 269 268 263 260 270 267 268 270 270
313 322 323 319 305 302 306 314 312 320 321 319 310 310 317 323 329 332 331 330 333 322 315 299 287 268 245 215 202 202 192 193 188 182 181 184 176 170 165 149 141 139 136 134 127 125 126 132 131 131 125 125 137 144 135 177 250 254 214 247 258 281 281 279 278 279 283 282 279 271 272 273 274 275 274 270 268 265 262 261 260 259 258 259 272
308 309 313 316 320 319 317 308 303 297 295 299 306 309 314 311 315 318 319 322 321 312 306 301 282 274 255 213 200 191 186 178 166 183 185 171 147 127 129 140 139 129 126 120 121 128 130 128 126 127 133 142 144 157 168 208 243 260 261 249 250 259 266 268 270 272 274 281 283 284 280 278 273 271 270 269 264 261 260 259 258 257 256 252 246
282 296 300 298 295 296 295 301 302 302 304 294 290 299 300 302 308 303 313 317 313 310 307 301 295 275 250 218 195 188 185 182 188 189 179 168 164 159 156 150 150 144 136 135 137 134 138 140 140 143 145 151 149 174 190 207 233 251 263 255 247 248 259 267 274 272 277 282 285 288 288 279 278 275 277 276 274 273 265 263 262 261 258 252 248
272 263 271 283 291 289 284 279 281 284 279 279 281 278 279 285 291 299 305 301 306 305 304 299 297 282 254 222 201 191 191 193 189 169 158 159 161 154 139 138 135 139 137 133 136 141 145 151 156 150 150 153 163 191 197 209 224 244 257 256 249 258 263 265 272 275 281 286 287 289 290 288 284 281 276 277 276 273 274 272 268 260 257 253 247
268 282 275 268 270 280 287 292 287 281 282 289 285 270 278 286 286 291 284 287 288 292 295 293 290 280 259 224 203 197 187 167 152 139 127 122 122 114 112 115 129 137 139 142 144 145 156 160 158 151 149 164 185 197 195 206 224 239 259 267 258 258 263 268 268 270 273 277 282 283 282 285 287 286 279 280 281 278 275 273 268 263 256 253 252
261 267 277 279 277 273 279 285 290 300 296 285 282 288 292 287 281 278 282 272 276 280 284 288 282 271 250 222 202 184 174 163 154 150 150 150 150 151 154 157 147 145 140 134 136 145 156 162 163 157 155 172 203 205 202 209 225 245 263 264 261 261 263 263 268 268 271 270 273 275 280 279 283 286 287 283 281 284 283 279 275 271 268 262 255
266 262 270 268 270 274 273 275 282 286 291 291 292 296 291 294 296 288 280 277 275 274 276 277 274 262 246 219 196 179 169 166 161 163 165 161 154 148 140 136 135 146 144 149 157 165 158 156 168 171 166 181 197 211 203 214 231 250 261 256 255 253 253 260 264 266 267 269 271 272 273 283 283 283 285 289 294 297 292 287 282 279 273 269 263
271 278 271 270 270 274 272 263 272 277 275 281 285 290 294 294 293 291 289 284 272 269 268 269 268 259 243 218 194 179 168 164 168 163 157 159 147 137 142 148 145 151 153 151 145 131 142 156 169 187 188 182 206 217 204 214 229 243 238 242 251 251 260 263 267 261 260 259 260 270 277 283 284 281 286 290 294 297 291 290 289 287 284 279 274
262 261 268 269 265 258 264 273 272 275 276 277 281 285 287 285 283 282 280 280 273 267 263 263 265 257 237 211 191 179 170 167 158 160 158 155 155 147 143 146 146 145 147 141 136 140 158 194 212 202 197 190 204 223 215 218 230 244 247 243 247 249 268 267 271 276 255 255 256 260 272 274 273 276 277 276 274 274 281 283 285 284 281 278 278
254 255 250 258 266 276 271 265 263 264 269 275 280 281 276 277 278 275 274 271 268 263 259 260 263 256 231 206 191 177 170 164 152 148 150 147 138 129 134 137 131 124 133 137 132 135 166 210 210 202 212 201 206 239 232 227 231 246 250 247 241 254 267 281 281 279 287 261 256 261 268 263 263 266 268 268 268 265 270 279 280 276 277 277 283
258 257 258 258 253 248 254 256 262 267 273 276 278 279 276 273 272 273 268 265 263 260 257 258 260 249 224 204 188 177 168 164 158 155 147 135 132 136 140 134 132 124 125 130 154 175 194 207 205 215 217 235 220 234 249 237 242 246 254 253 244 247 263 272 284 282 279 291 288 275 276 272 268 272 274 274 273 271 268 272 274 273 271 277 281
246 257 261 257 253 253 255 260 258 264 267 269 268 268 269 270 271 265 264 268 260 255 255 257 253 236 217 199 182 177 165 156 155 149 145 147 148 143 148 147 147 148 152 165 170 176 192 211 221 223 231 246 257 248 260 263 254 254 257 262 265 265 271 291 290 291 294 288 286 289 286 281 282 284 284 282 278 276 272 271 271 269 271 271 271
283 274 246 241 264 261 255 252 255 254 256 256 256 259 262 264 263 264 268 262 255 252 251 251 243 223 207 187 172 149 128 119 138 159 150 146 147 148 144 137 142 147 153 158 169 171 185 212 242 256 252 260 259 255 249 256 261 261 265 274 273 277 280 280 286 296 295 291 284 282 289 291 289 288 286 283 280 277 275 272 269 266 265 264 264
274 261 267 257 256 258 262 265 260 251 246 246 241 251 257 260 262 265 260 255 250 245 244 239 227 209 182 159 147 140 133 127 110 72 46 114 123 115 123 139 148 149 144 141 147 148 156 204 236 261 266 256 254 253 258 249 259 264 271 277 282 285 289 286 289 294 296 290 295 297 297 295 291 288 285 282 280 277 273 271 268 267 265 263 260
283 284 278 263 257 266 269 267 255 251 250 245 238 244 254 256 259 255 252 249 246 245 239 226 206 187 151 132 117 124 140 134 134 137 127 112 96 118 113 127 124 109 124 142 154 151 182 210 224 246 268 283 284 275 275 269 267 273 275 281 290 298 302 303 302 293 293 296 294 292 292 290 288 285 283 281 280 275 270 268 266 265 265 260 255
280 280 275 267 268 267 270 275 275 255 251 247 243 239 250 254 253 249 244 241 239 237 227 204 183 155 141 132 122 114 103 94 101 124 135 141 144 144 118 112 115 135 148 146 149 166 195 203 227 254 266 277 295 301 293 290 285 285 288 296 304 308 307 305 299 297 295 291 290 288 287 286 285 284 286 286 286 283 278 275 272 269 264 258 251
281 278 282 282 275 276 275 274 277 275 264 260 254 252 251 253 245 239 234 226 225 219 203 178 150 142 140 138 130 131 132 131 131 138 116 130 121 117 129 142 144 140 137 133 145 168 188 205 239 258 270 287 290 291 289 291 293 300 301 302 309 313 314 313 309 305 301 300 297 295 295 290 285 283 280 278 278 278 278 275 270 265 259 254 249
267 273 274 271 269 268 271 273 274 275 272 270 268 265 260 253 245 236 227 213 208 200 184 156 143 141 144 141 134 136 134 140 142 142 130 106 127 141 141 157 154 149 140 157 166 183 197 213 224 246 271 289 292 289 294 308 316 319 318 321 323 322 320 314 307 305 302 303 303 296 290 285 285 284 281 278 273 270 269 271 270 265 260 254 252
275 272 266 264 267 269 267 270 272 275 274 272 270 267 263 258 252 236 211 200 198 182 160 145 142 139 134 130 129 114 114 119 108 106 99 154 157 159 151 150 187 156 153 162 182 190 202 204 190 213 243 291 301 315 312 324 324 327 327 327 327 324 319 313 303 303 306 302 295 294 296 298 296 293 293 288 284 279 275 271 271 273 271 268 263
265 267 267 265 263 264 268 269 271 272 272 270 275 271 262 260 239 220 196 190 176 158 146 146 142 138 136 136 139 139 151 148 150 146 129 64 0 113 142 142 179 211 183 150 147 164 176 169 178 224 172 256 301 293 307 325 331 332 330 328 321 315 314 313 315 316 317 308 306 308 310 305 301 300 300 298 294 287 285 284 279 278 277 274 267
270 270 268 265 267 267 268 270 270 269 265 272 271 283 319 309 250 203 181 166 148 139 136 136 131 131 141 143 142 145 154 148 146 140 132 132 123 67 68 92 106 140 166 178 96 111 139 126 125 360 22 204 270 306 328 334 335 334 330 325 323 324 324 324 323 324 319 311 313 310 307 302 297 295 293 294 292 293 291 289 287 283 276 273 270